IRIDIUM 10 [-]

Last updated on Oct. 5, 2018, 6:13 a.m. UTC

1 24839U 97030D   18278.07180852  .05902560 -16488-5  44517-3 0  9996
2 24839  86.3682 149.7802 0107724 106.7889 254.4080 16.21114689115269

Satellite is not in orbit.